{"data":{"norad_id":63043,"epoch":"2026-05-24T18:51:38.672064Z","epoch_age_seconds":93843,"freshness":"FRESH","line1":"1 63043U 25034Q   26144.78586426  .00013767  00000+0  41780-3 0  9999","line2":"2 63043  53.1594 277.0160 0000538  93.0185 267.0879 15.34401750 70567","mean_motion":15.3440175,"eccentricity":5.38e-5,"inclination_deg":53.1594,"raan_deg":277.016,"arg_perigee_deg":93.0185,"mean_anomaly_deg":267.0879,"bstar":0.0004178,"rev_number":7056,"period_min":93.847651047061,"perigee_km":462.33000191816,"apogee_km":463.06607576834,"semimajor_km":6840.8350388433,"source":"CELESTRAK","updated_at":"2026-05-25T13:38:19.868676Z"}}